Location: Ethel Rock
(53.4667°N, 4.5667°W)
Time: 05:36:21
(UTC+00:00)

CZ-2C R/B - Pass Details

Date: 24 October 2020
Orbit: 667 x 785 km, 98.2° (Epoch: 25 November)

Event Time Altitude Azimuth Distance (km) Brightness Sun altitude
Rises 03:55:00 0° 18° (NNE) 3,254 6.2 -28.2°
Reaches altitude 10° 03:57:27 10° 25° (NNE) 2,308 5.5 -27.9°
Maximum altitude 04:02:19 45° 98° (E) 1,015 3.4 -27.2°
Enters shadow 04:05:43 18° 164° (SSE) 1,754 4.3 -26.7°
